Regional Weather Roundup
Issued by NWS

Home | Current Version | Previous Version | Graphics & Text | Print | Product List | Glossary On
Versions: 1 2 3 4 5 6 7 8 9 10 11 12 13 14 15 16 17 18 19 20 21 22 23 24 25 26 27 28 29 30 31 32 33 34 35 36 37 38 39 40 41 42 43 44 45 46 47 48 49 50
000
ASUS43 KMPX 220710
RWRMN
WEATHER ROUNDUP FOR MINNESOTA
NATIONAL WEATHER SERVICE TWIN CITIES/CHANHASSEN MN
200 AM CDT MON SEP 22 2014


NOTE: "FAIR" INDICATES FEW OR NO CLOUDS BELOW 12,000 FEET WITH NO
SIGNIFICANT WEATHER AND/OR OBSTRUCTIONS TO VISIBILITY. N/A MEANS
CURRENT SKY AND/OR WEATHER CONDITIONS ARE NOT AVAILABLE.

MNZ060>063-068>070-220800-
   Twin Cities Metro

CITY           SKY/WX    TMP DP  RH WIND       PRES   REMARKS
TWIN CITIES    CLEAR     51  48  89 W3        30.23S
ST PAUL        CLEAR     50  49  96 CALM      30.24S
CRYSTAL        CLEAR     52  48  86 CALM      30.22S
BLAINE         CLEAR     50  50 100 CALM      30.22F
LAKEVILLE      CLEAR     48  48 100 W5        30.24R
EDEN PRAIRIE   CLEAR     52  49  89 CALM      30.22S
SOUTH ST PAUL  CLEAR     50  48  92 CALM      30.23S
LAKE ELMO      FAIR      45  45 100 CALM      30.23S
$$
MNZ001>005-007-008-013>017-022>024-027-028-220800-
   Northwest Minnesota

CITY           SKY/WX    TMP DP  RH WIND       PRES   REMARKS
BEMIDJI        CLEAR     46  44  95 SW3       30.19S
HALLOCK        CLEAR     48  46  93 S7        30.13F
ROSEAU         CLEAR     52  45  76 SW10      30.14S
WARROAD        CLEAR     50  46  87 SW8       30.14F
THIEF RVR FALL CLEAR     48  46  93 S7        30.17F
CROOKSTON      CLEAR     48  46  93 S7        30.18F
FOSSTON        CLEAR     39  39 100 CALM      30.20S
DETROIT LAKES  FOG       45  43  93 S3        30.22F VSB 1/2
MOORHEAD       CLEAR     50  50 100 S6        30.21S
PARK RAPIDS    CLEAR     41  40  96 CALM      30.21S
MAHNOMEN       FAIR      45  44  95 S5        30.19F
$$
MNZ006-009>011-018-025>026-220800-
   North Central Minnesota

CITY           SKY/WX    TMP DP  RH WIND       PRES   REMARKS
BAUDETTE       CLEAR     49  46  90 SW6       30.14S
FLAG ISLAND    CLEAR     52  48  87 SW15      30.10S
INTL FALLS     CLEAR     40  39  97 SW3       30.14S
WASKISH        CLEAR     45  45 100 CALM      30.17R FOG
BIG FORK       FOG       43  43 100 CALM      30.18S VSB 1/2
LONGVILLE      CLEAR     41  41 100 CALM      30.20S
GRAND RAPIDS   CLEAR     46  45  93 CALM      30.19S
CRANE LAKE     CLEAR     45  45 100 CALM      30.16S
ORR            CLEAR     46  43  87 CALM      30.14S
COOK           CLEAR     45  45 100 CALM      30.16F
WALKER         FAIR      42  42  98 W3        30.20R
$$
MNZ012-019>021-037-220800-
   Northeast Minnesota

CITY           SKY/WX    TMP DP  RH WIND       PRES   REMARKS
DULUTH         MOCLDY    50  46  86 NW6       30.19R
ELY            CLOUDY    48  46  93 W5        30.15S
HIBBING        PTCLDY    41  39  93 SW3       30.18S FOG
EVELETH        CLOUDY    50  46  87 W3        30.18F
DULUTH HARBOR  CLOUDY    50  46  87 S6        30.19R
TWO HARBORS    CLOUDY    50  45  81 NW3       30.15F
SILVER BAY     CLEAR     43  43 100 CALM      30.15S
GRAND MARAIS     N/A     49  46  90 CALM      30.12F
G MARAIS ARPRT CLOUDY    46  41  81 W5        30.13S
$$
MNZ029>031-032-039>041-046>048-054>057-064-220800-
   West Central Minnesota

CITY           SKY/WX    TMP DP  RH WIND       PRES   REMARKS
FERGUS FALLS   CLEAR     48  46  93 S3        30.23F
WHEATON        CLEAR     48  46  93 S6        30.24S
MORRIS           N/A     45  45 100 S5        30.23S FOG
ALEXANDRIA     CLEAR     46  44  93 SW5       30.24S
ELBOW LAKE     FAIR      47  46  95 S5        30.23S
WADENA         CLEAR     41  41 100 CALM      30.22S
GLENWOOD       FOG       45  43  93 SW5       30.25R VSB 1/4
APPLETON       CLEAR     45  43  93 CALM      30.24S
BENSON         FOG       43  43 100 CALM      30.25S VSB 1/2
ORTONVILLE     CLEAR     46  45  93 S3        30.24S
MADISON        CLEAR     46  45  93 CALM      30.25S
WILLMAR        FOG       45  43  93 CALM      30.26S VSB 1/4
$$
MNZ033>034-036-042>043-049>051-058-059-220800-
   Central Minnesota

CITY           SKY/WX    TMP DP  RH WIND       PRES   REMARKS
ST CLOUD       CLEAR     48  45  89 CALM      30.23S
SAUK CENTRE    FOG       41  41 100 CALM      30.24S VSB 3/4
PAYNESVILLE    CLEAR     38  39 100 SW3       30.25R FOG
AITKIN         HAZE      43  37  81 CALM      30.20R VSB 1/4
PINE RIVER     FOG       39  39 100 CALM      30.24R VSB 1/4
BRAINERD       CLEAR     42  42 100 S3        30.22S
STAPLES        CLEAR     45  43  93 CALM      30.22S
LONG PRAIRIE   FAIR      43  41  93 CALM      30.23F FOG
LITTLE FALLS   PTCLDY    41  41 100 CALM      30.23S FOG
LITCHFIELD     CLEAR     46  46 100 CALM      30.25R
BUFFALO        CLEAR     48  46  90 CALM      30.24S
MAPLE LAKE     CLEAR     48  47  98 CALM      30.24S FOG
$$
MNZ037-044-045-052-053-220800-
   East Central Minnesota

CITY           SKY/WX    TMP DP  RH WIND       PRES   REMARKS
PRINCETON      CLEAR     45  45 100 CALM      30.23S
MORA             N/A     43  43 100 CALM      30.22F FOG
CAMBRIDGE      CLEAR     46  41  81 CALM      30.20F
RUSH CITY      PTCLDY    44  43  96 CALM      30.22R
MOOSE LAKE     CLEAR     43  43 100 CALM      30.19R
HINCKLEY       FAIR      45  43  93 CALM      30.21S
CLOQUET        CLEAR     46  45  93 W7        30.20R
MCGREGOR         N/A     43  41  93 CALM      30.21R VSB 3/4
$$
MNZ071>073-080-081-089-090-097-098-220800-
   Southwest Minnesota

CITY           SKY/WX    TMP DP  RH WIND       PRES   REMARKS
MONTEVIDEO     CLEAR     46  45  93 CALM      30.26S
GRANITE FALLS  CLEAR     43  43  99 CALM      30.27S
CANBY          CLEAR     46  44  96 CALM      30.26S
MARSHALL       CLEAR     46  41  81 SW6       30.25S
REDWOOD FALLS  CLEAR     47  45  93 SW3       30.25S
OLIVIA         CLEAR     45  41  87 CALM      30.24S FOG
PIPESTONE      CLEAR     46  45  93 E3        30.26F
WINDOM         CLEAR     43  43 100 CALM      30.27S
WORTHINGTON    CLEAR     45  43  93 CALM      30.28S
JACKSON        CLEAR     43  41  93 W3        30.27S
TRACY          CLEAR     49  46  92 CALM      30.26F
SLAYTON        CLEAR     44  42  94 CALM      30.28S
$$
MNZ065>067-074>077-082>085-091>093-220800-
   South Central Minnesota

CITY           SKY/WX    TMP DP  RH WIND       PRES   REMARKS
MANKATO        CLEAR     50  45  81 CALM      30.25S
NEW ULM        CLEAR     45  45 100 CALM      30.25S
ST JAMES       CLEAR     45  43  93 CALM      30.27S
FAIRMONT       CLEAR     46  41  81 CALM      30.26S
GLENCOE        CLEAR     47  44  88 CALM      30.24S
FARIBAULT      CLEAR     52  46  82 CALM      30.25R
OWATONNA       CLEAR     45  43  93 CALM      30.25R
WASECA         CLEAR     45  41  87 N3        30.27R
ALBERT LEA     CLEAR     52  48  87 CALM      30.25R
$$
MNZ078>079-086>088-094>096-220800-
   Southeast Minnesota

CITY           SKY/WX    TMP DP  RH WIND       PRES   REMARKS
ROCHESTER      CLEAR     47  45  93 W7        30.24S
RED WING       CLEAR     45  45 100 CALM      30.22R
STANTON        CLEAR     45  43  93 CALM      30.23R
DODGE CENTER   PTCLDY    45  45 100 W5        30.24R
WINONA         CLEAR     48  46  93 CALM      30.22S
AUSTIN         CLEAR     46  45  93 CALM      30.24R
PRESTON        CLEAR     47  47 100 NW6       30.23S
$$
ABBREVIATIONS USED IN REMARKS
   TC - TEMPERATURES IN CELSIUS
  WCI - WIND CHILL INDEX
   HX - HEAT INDEX
  VSB - VISIBILITY
$$


USA.gov is the U.S. government's official web portal to all federal, state and local government web resources and services.